Wind_Speed
13 14 14 13 12 12 13 14 14 12 12 12 11 11 7 3 10 16 16 16 15 19 13 7 3 4 6 5 5 4 7 11 14 14 8 5 8 4 6 14 11 7 9 5 14
13 15 13 13 12 12 13 14 13 10 10 12 13 12 7 2 4 15 16 19 15 16 10 5 4 6 4 4 4 9 9 9 7 5 8 12 11 13 13 15 18 16 16 9 21
14 15 14 13 12 11 13 13 12 11 10 10 14 10 6 1 4 8 24 18 15 14 3 2 1 2 2 3 1 1 6 7 2 5 8 12 15 13 15 17 16 17 17 16 18
15 16 15 13 13 12 12 14 12 10 9 8 12 9 6 2 2 13 22 16 14 14 5 2 2 2 3 3 1 4 3 6 6 6 7 10 12 12 15 20 17 15 14 14 15
15 16 15 14 13 13 14 16 13 9 7 6 9 7 2 3 6 16 15 14 9 10 14 4 6 2 2 2 1 4 3 5 4 5 9 10 13 14 22 19 16 9 11 15 17
14 16 16 14 13 14 16 16 11 8 5 5 6 6 2 3 8 15 11 11 11 11 13 14 6 6 5 2 3 4 7 8 4 6 8 9 15 14 8 4 7 11 17 17 16
13 16 16 14 13 15 18 14 8 5 5 4 4 2 9 5 6 15 10 7 8 8 6 7 6 1 0 2 3 5 6 6 5 4 10 11 14 12 11 6 10 16 16 14 13
13 16 15 15 14 15 18 10 8 2 3 4 3 1 3 1 3 15 10 3 6 5 3 5 3 4 5 1 3 4 4 7 3 5 1 7 11 13 14 14 18 16 13 10 9
14 15 15 14 14 16 17 5 7 3 4 5 2 3 3 1 4 12 10 7 6 2 4 3 2 2 1 4 5 2 8 12 11 4 5 7 16 20 22 16 15 12 11 7 6
14 14 15 14 15 16 14 5 8 7 3 1 0 3 3 4 6 12 9 6 3 3 1 3 0 1 9 10 5 11 10 10 14 9 14 18 23 21 20 13 12 9 5 6 6
13 13 14 13 14 16 11 3 4 3 10 4 3 2 3 10 1 12 10 5 2 3 2 4 4 7 9 7 5 8 13 18 16 15 11 14 25 23 18 9 8 5 6 7 7
12 12 13 12 13 12 7 3 2 3 2 3 2 1 2 6 2 14 13 3 4 4 4 3 5 5 5 4 7 11 17 15 10 18 16 19 28 23 10 7 5 8 8 9 9
11 11 11 11 10 5 7 3 1 2 3 2 2 3 3 6 3 9 10 1 4 5 7 4 3 4 4 6 9 14 10 14 17 25 14 11 16 2 5 4 6 10 10 10 12
11 11 9 11 2 2 2 0 1 3 1 2 2 2 2 3 1 5 6 3 3 5 4 3 2 4 5 6 6 11 5 14 18 14 5 10 7 14 3 6 10 8 10 11 13
10 10 7 6 2 2 0 1 0 4 3 2 2 2 3 3 4 4 3 1 4 2 3 4 2 3 4 5 7 8 17 17 15 11 10 2 4 7 13 8 14 16 11 13 16
9 8 6 4 2 1 1 2 2 3 5 2 1 1 1 4 3 5 1 3 2 1 1 2 1 1 3 11 7 13 16 11 4 4 4 2 3 9 6 13 18 18 16 18 23
10 8 5 2 0 1 1 1 3 3 1 1 1 3 2 4 2 6 3 5 3 1 3 1 2 2 1 8 3 13 11 4 3 2 4 2 9 11 14 14 11 15 22 25 25
11 8 4 2 2 1 0 2 2 1 4 3 2 1 2 3 1 1 0 2 5 3 1 3 1 3 2 2 4 5 4 3 5 6 12 16 7 5 15 7 10 22 23 24 22
14 7 2 2 2 1 1 1 5 3 1 6 4 2 1 1 2 2 1 1 2 3 2 2 2 3 2 1 2 1 1 3 4 8 6 6 11 17 1 13 21 23 24 22 19
17 9 2 4 4 1 3 5 3 0 4 2 4 2 3 2 3 3 3 2 3 1 3 3 5 3 3 2 3 1 3 3 3 6 7 6 13 10 14 21 20 25 25 23 24
14 3 2 5 4 0 3 5 3 3 2 4 4 4 2 3 3 3 3 3 3 3 3 2 1 2 1 6 1 3 2 2 2 4 4 7 9 10 12 18 22 26 24 20 22
9 2 1 8 2 0 3 3 2 5 3 2 2 3 4 6 4 4 3 1 6 6 2 2 1 5 2 2 2 5 4 4 3 2 6 7 10 10 15 20 21 25 20 17 21
4 2 4 2 5 6 1 2 2 4 5 6 6 2 2 4 3 3 3 3 7 6 5 5 2 5 3 3 3 4 8 8 1 1 9 4 9 14 20 23 22 22 19 20 20
4 4 2 1 0 2 4 4 3 4 3 3 3 4 4 3 3 3 5 4 6 4 2 3 2 5 7 5 2 6 8 9 8 5 6 14 23 25 20 24 21 20 21 19 18
3 4 4 6 6 7 5 6 5 7 5 7 3 9 7 5 4 5 5 5 5 6 5 3 5 4 12 18 17 18 19 16 17 15 8 17 15 25 22 16 17 18 21 20 20
6 4 2 3 7 16 8 9 10 5 10 6 7 11 12 5 5 7 8 7 4 9 7 4 3 4 6 4 7 14 16 16 17 16 19 25 28 25 12 14 17 18 20 19 20
6 1 5 9 7 12 8 10 11 9 8 3 10 4 12 8 6 7 5 5 7 8 10 5 2 2 5 5 13 9 9 13 7 10 7 8 8 8 15 15 13 17 18 18 18
Wind_Direction
343 348 346 349 348 352 354 353 352 355 358 1 356 344 323 296 31 34 31 340 328 334 345 308 236 187 199 188 240 248 244 249 262 265 296 35 344 291 318 282 269 275 281 324 356
343 343 346 345 348 352 355 352 351 351 355 4 1 352 344 266 309 28 352 348 343 344 351 347 112 177 155 186 197 227 240 273 17 358 307 318 310 311 308 292 283 285 282 341 331
339 341 342 342 347 351 351 349 347 344 337 355 357 357 356 324 276 359 343 352 353 357 330 349 187 219 150 216 27 218 268 22 344 355 323 302 298 309 286 277 280 298 310 312 316
335 337 339 341 344 345 346 342 337 339 335 341 348 352 19 272 4 345 342 355 2 8 22 7 219 178 152 183 327 267 307 326 338 335 310 296 314 282 273 274 295 296 303 307 310
331 335 337 339 342 342 342 339 332 333 341 355 352 5 351 71 17 339 345 359 4 12 31 33 56 4 108 80 209 262 332 300 295 302 306 301 282 286 282 280 282 287 286 294 299
327 333 336 338 341 339 338 334 331 330 340 1 9 40 295 73 340 346 356 7 11 21 31 43 53 37 87 68 325 332 289 276 291 251 294 287 293 294 265 342 284 284 296 295 299
324 333 337 336 339 338 337 333 329 326 326 342 14 74 63 78 358 356 350 4 2 12 27 34 19 66 276 163 342 307 298 245 190 329 303 316 284 226 263 306 291 276 279 292 303
320 330 336 333 337 336 336 335 333 299 2 7 15 271 79 292 347 5 4 318 359 11 1 2 7 67 24 321 247 315 248 343 64 9 354 343 293 303 330 304 288 290 292 303 306
314 324 332 331 333 332 336 296 2 301 330 359 329 277 94 349 360 356 355 344 319 310 8 353 27 42 15 298 224 99 316 318 321 278 302 270 292 291 304 298 291 287 287 293 284
312 321 330 330 332 332 334 287 286 349 329 298 304 221 63 340 321 337 353 340 340 319 224 5 320 25 27 13 358 321 320 314 308 302 317 291 287 295 301 297 286 285 274 255 270
309 317 326 328 334 338 345 317 226 174 44 50 26 349 2 330 305 8 353 320 302 75 19 26 43 27 10 13 338 307 301 301 303 327 310 287 297 298 299 289 272 262 250 258 273
303 313 324 329 334 343 3 25 36 353 88 40 14 360 338 336 287 14 1 34 30 37 339 201 59 24 335 338 316 303 301 311 306 324 320 300 294 294 277 266 281 289 268 269 285
296 308 322 331 335 17 47 61 51 342 272 112 43 356 348 329 27 358 359 15 23 42 25 48 70 347 334 330 327 314 298 325 311 320 302 313 288 275 279 231 266 276 278 285 281
288 302 320 335 341 352 57 310 304 305 286 179 126 68 294 310 214 358 10 354 72 35 11 54 81 351 332 308 321 308 345 312 310 318 307 357 294 315 329 274 302 297 277 277 307
279 293 313 348 336 313 212 346 343 268 324 100 107 347 328 342 338 40 351 263 55 13 300 55 356 2 308 312 327 281 317 302 297 292 307 140 257 283 294 311 342 335 313 302 315
262 279 296 319 14 260 18 71 349 34 249 163 305 339 219 27 33 323 343 73 35 172 99 59 100 246 329 309 288 295 304 311 268 283 260 285 278 286 343 335 328 333 329 322 317
243 253 252 270 354 189 50 251 12 193 78 316 62 13 29 23 41 1 20 46 24 360 11 260 174 128 340 310 200 350 340 347 296 253 293 120 299 260 313 333 335 328 328 319 319
220 224 227 245 174 139 29 59 225 294 212 129 95 69 256 355 38 21 209 134 54 346 328 343 267 202 104 35 312 4 9 32 305 316 301 302 238 275 338 1 329 335 324 320 317
186 186 180 179 185 146 129 119 226 204 127 146 111 123 279 214 288 229 3 120 64 356 7 313 248 129 137 320 267 53 352 350 273 252 268 245 276 286 86 329 333 331 327 320 321
155 147 150 181 173 214 85 239 222 83 144 177 178 173 195 208 224 201 195 123 139 344 321 86 292 168 113 236 204 274 347 236 183 302 298 274 308 300 336 330 338 338 331 327 324
135 122 176 168 127 89 198 225 212 176 209 203 179 145 190 199 255 209 147 161 164 163 309 112 280 148 203 206 219 166 185 219 280 264 291 309 299 348 316 339 342 339 330 323 326
137 146 35 158 90 350 214 200 173 167 190 198 200 123 179 158 197 241 193 196 156 152 199 111 287 268 267 145 321 245 231 193 232 246 252 282 271 278 326 345 341 335 321 328 328
111 103 63 331 162 214 230 219 246 173 202 194 184 144 141 180 229 218 175 121 164 155 197 172 210 299 206 185 165 230 204 225 239 278 243 271 273 323 325 335 334 331 331 334 333
143 151 106 218 56 230 163 201 192 216 222 207 132 128 140 152 187 213 197 170 179 176 149 165 236 239 259 332 10 242 235 222 185 239 268 242 275 296 317 325 333 333 336 337 339
155 204 159 178 206 189 189 178 170 189 228 198 194 219 176 157 189 221 173 154 172 175 194 225 255 229 259 272 278 272 264 250 235 223 237 274 307 295 306 318 335 334 337 339 344
149 160 113 162 142 182 188 196 200 139 169 225 230 202 195 168 197 186 160 182 179 177 198 214 272 318 284 271 262 273 261 241 237 241 254 263 276 280 317 333 342 343 338 342 345
132 146 116 158 155 174 200 192 202 137 216 276 223 175 206 215 106 82 92 105 154 161 189 179 253 311 273 346 310 275 256 210 200 204 206 228 252 335 329 329 337 342 341 342 344
Height
829 826 823 820 817 814 811 809 806 804 803 800 798 796 794 794 792 792 790 795 789 784 780 777 776 775 775 773 773 769 771 763 755 752 752 760 766 757 759 759 751 752 749 747 752
828 826 823 820 817 814 811 809 806 804 803 800 798 796 794 794 794 793 796 792 788 784 782 778 774 774 772 773 772 769 764 758 764 764 769 768 769 765 763 758 753 747 742 747 753
828 826 823 820 816 814 811 809 806 805 803 800 799 797 795 795 794 796 794 790 787 784 782 781 779 774 774 772 775 768 765 770 766 774 778 775 770 763 766 761 752 750 749 753 754
828 825 822 819 816 813 810 809 806 804 802 800 799 797 796 796 794 797 794 790 787 785 783 780 778 774 773 774 779 778 775 775 774 778 780 776 773 769 763 755 752 751 753 752 749
828 825 822 818 815 813 810 808 806 803 801 800 798 796 797 796 801 800 794 791 790 788 784 782 779 777 777 780 780 778 778 780 780 782 780 778 773 767 758 752 750 751 752 750 748
827 825 821 818 814 812 810 807 805 803 802 800 798 797 797 798 804 800 796 794 792 790 788 785 786 784 784 785 783 785 784 780 781 780 779 781 769 765 747 747 752 752 750 746 744
827 824 820 817 814 812 809 806 804 802 801 800 799 798 797 806 804 801 798 796 795 794 791 791 789 784 787 787 791 787 782 770 779 778 776 779 755 759 744 746 750 748 744 742 742
826 823 819 816 813 811 809 806 804 802 801 799 799 799 800 804 804 802 799 798 797 796 795 794 792 790 790 793 786 780 779 772 763 775 774 779 761 741 743 744 742 739 737 738 740
825 822 818 815 813 811 808 806 805 803 801 800 800 799 800 803 803 802 801 799 797 796 795 794 793 791 784 781 778 774 781 777 777 770 778 777 766 748 741 737 736 735 734 736 738
823 821 817 815 812 809 807 805 805 803 801 800 801 801 803 805 804 802 800 799 797 795 793 792 790 782 787 783 791 794 790 784 782 771 772 772 760 741 734 732 732 731 733 736 735
822 820 817 814 812 809 806 806 808 805 804 807 809 807 807 807 804 801 799 798 795 791 791 794 788 800 806 807 807 807 800 790 774 771 779 766 757 740 729 729 729 729 731 731 733
821 819 816 814 812 810 808 808 812 814 807 811 810 810 811 810 803 802 800 795 793 794 793 791 798 810 812 810 807 800 791 781 774 771 778 763 748 733 724 727 728 728 728 730 732
820 819 816 814 812 811 812 814 813 812 803 809 811 810 812 812 808 807 805 802 800 795 799 794 807 812 811 805 805 797 791 789 791 778 766 766 734 716 716 727 729 731 731 732 731
819 818 816 814 816 812 814 813 813 814 804 807 807 811 812 811 808 812 810 808 800 801 803 802 810 813 809 805 810 801 795 794 791 785 772 767 760 728 720 725 722 725 728 728 728
818 818 816 815 815 815 815 813 814 816 802 809 807 813 813 810 815 809 812 803 803 806 806 806 808 808 806 808 813 802 796 795 789 787 782 761 773 730 716 720 721 723 724 727 729
815 816 816 817 815 816 814 814 816 819 801 813 810 810 808 810 811 810 809 808 811 807 808 808 818 815 810 811 812 807 791 781 785 783 781 761 767 737 725 730 727 726 728 729 730
814 816 817 816 816 816 815 816 817 810 815 812 810 812 811 812 810 813 810 807 805 800 799 800 807 815 818 809 804 801 798 778 775 771 761 764 765 740 727 727 733 733 731 731 728
812 815 815 816 816 816 817 818 815 812 810 817 816 816 807 820 817 814 810 807 817 816 803 803 793 809 819 817 816 813 817 807 801 773 769 764 768 733 726 733 732 736 737 733 727
807 813 815 815 817 818 816 831 805 806 815 813 818 824 822 822 819 813 814 810 821 825 814 805 796 814 819 821 820 816 812 816 822 801 803 756 738 722 727 725 729 735 734 731 726
804 810 814 816 817 819 827 810 812 810 813 811 802 820 809 825 815 811 815 820 825 831 831 826 822 811 818 823 821 821 821 817 817 804 786 746 741 724 726 726 731 729 732 729 725
802 810 813 816 818 819 819 813 816 813 812 806 810 820 818 821 825 818 816 828 823 833 834 829 835 808 818 811 801 818 819 826 822 810 794 777 737 725 730 725 733 731 734 730 726
801 809 813 816 824 827 818 814 811 813 816 814 810 811 816 824 827 820 811 818 823 830 840 833 838 822 797 811 816 812 816 815 817 800 799 800 767 728 723 727 735 738 737 733 729
802 809 813 816 818 819 818 813 811 813 812 813 810 808 824 825 820 826 819 828 828 829 844 839 836 820 801 815 817 813 808 811 822 828 818 806 742 716 725 733 739 741 737 734 728
800 805 816 819 817 808 811 810 811 810 809 810 812 815 821 826 830 826 822 831 832 830 840 838 839 830 791 788 810 808 802 805 824 821 798 780 753 740 743 747 744 742 738 735 730
786 787 792 805 807 805 802 800 802 809 812 811 814 806 805 821 827 827 819 830 832 834 837 836 840 838 832 821 816 808 806 806 808 810 809 757 779 764 759 753 749 746 741 735 730
776 781 793 794 788 801 803 798 797 804 809 807 806 796 797 803 798 814 819 820 822 833 836 836 832 836 835 814 815 810 796 794 800 802 796 788 782 755 749 750 750 749 744 738 734
763 770 765 788 789 794 781 784 786 796 801 799 798 796 800 800 807 808 813 812 817 827 835 837 836 841 804 817 812 795 769 769 779 782 787 782 752 753 753 755 754 755 750 743 739